Regional Weather Roundup
Issued by NWS

Home | Current Version | Previous Version | Graphics & Text | Print | Product List | Glossary On
Versions: 1 2 3 4 5 6 7 8 9 10 11 12 13 14 15 16 17 18 19 20 21 22 23 24 25 26 27
000
ASUS45 KCYS 291110
RWRWY

WYOMING REGIONAL WEATHER ROUNDUP
NATIONAL WEATHER SERVICE CHEYENNE WY
500 AM MDT FRI JUL 29 2016

NOTE:  "FAIR" INDICATES FEW OR NO CLOUDS BELOW 12,000 FEET
WITH NO SIGNIFICANT WEATHER AND/OR OBSTRUCTIONS TO VISIBILITY.

WYZ001-291200-
YELLOWSTONE NATIONAL PARK

CITY           SKY/WX    TMP DP  RH WIND       PRES   REMARKS
LK YELLOWSTONE   N/A     42  39  89 NW3       30.34F
W YELLOWSTONE  NOT AVBL

$$
WYZ002>013-054>058-071-098>099-291200-
NORTHERN WYOMING

CITY           SKY/WX    TMP DP  RH WIND       PRES   REMARKS
JACKSON        MOCLDY    52  43  71 CALM      30.25R
CODY           FAIR      57  46  67 S5        30.17S
GREYBULL       FAIR      61  48  62 E3        30.10S
WORLAND        FAIR      57  47  69 S5        30.11F
SHERIDAN       FAIR      51  47  86 N3        30.11F
BUFFALO        FAIR      57  45  64 SW7       30.16F
GILLETTE       FAIR      56  54  93 S6        30.14S
HULETT         FAIR      55  52  88 CALM      30.16S
NEWCASTLE      FAIR      55  54  94 E3        30.19R

$$
WYZ014>020-022>026-101>103-291200-
CENTRAL WYOMING

CITY           SKY/WX    TMP DP  RH WIND       PRES   REMARKS
BIG PINEY      FAIR      48  30  49 N3        30.32R
PINEDALE       FAIR      43  34  70 NW6       30.32F
DUBOIS         FAIR      48  41  76 NW6       30.32S
LANDER         FAIR      62  44  51 W9        30.20S
RIVERTON       FAIR      57  47  69 W5        30.21S
CASPER         FAIR      53  49  86 CALM      30.20S
DOUGLAS          N/A    N/A N/A N/A MISG      30.18F

$$
WYZ021-027>030-104>119-291200-
SOUTHERN WYOMING

CITY           SKY/WX    TMP DP  RH WIND       PRES   REMARKS
EVANSTON       FAIR      59  30  33 E10       30.28F
KEMMERER         N/A     54  39  58 N10       30.31S
FORT BRIDGER   FAIR      54  35  48 W3        30.31F
ROCK SPRINGS   FAIR      58  45  62 E8        30.27S
DIXON          FAIR      52  43  71 CALM      30.26R
RAWLINS        FAIR      57  51  80 NE5       30.27R
SARATOGA       CLOUDY    50  45  81 E10       30.28S
LARAMIE        FAIR      52  51  97 SE7       30.29S
CHEYENNE       FAIR      57  55  93 SW8       30.24F
TORRINGTON     FAIR      57  56  96 E8        30.15S
PINE BLUFFS    FAIR      55  54  94 W6        30.21F

$$




USA.gov is the U.S. government's official web portal to all federal, state and local government web resources and services.